DELTA 1 DEB, 10221

Orbit data source: Space-Track

DELTA 1 DEB, 10221 is space debris in LEO originally from a launch on Thu, 14 Jul 1977 UTC launched from the Air Force Eastern Test Range (AFETR). Debris objects in space refer to the collection of defunct objects orbiting the Earth. Examples of debris include non-operational satellites, rocket bodies, and fragments generated from explosions, collisions, or faulty payload assembly.

Loading next visibility...
Identifier
10221, 1977-065AY
Orbit
LEO
Country
Flag of USUS
Related business
Manufacturer
Unknown
Mission
Spacecraft
Bus & Motor
Unknown
Mass
Unknown
Launch date (UTC)
1977-07-14 (49 years ago)
Launch vehicle
Unknown
Launch site
Air Force Eastern Test Range (AFETR)
Object type
Payload
Rocket body
Debris
Shape & HBR
Unknown shape, 0.1 m
Radar Cross Section
Medium (>0.1 m² and <1 m²)

Expand to show TLE details & history
Last TLE update: 4 days ago

TLE from 4 days ago
0 DELTA 1 DEB
1 10221U 77065AY  26259.18169003  .00005686  00000-0  46095-3 0  9995
2 10221  29.0263  75.2809 0283251 256.1777 100.7146 14.71237996486069
Epoch: 2026-09-16T04:21Z
TLE epoch observation values (Epoch: 2026-09-16T04:21:38.018Z)
Latitude
-0.00002°
Longitude
14.7355°
Altitude
697.905 km
Speed
7.487 km/s
True Right ascension
05h 01m 07s
True Declination
0° 00' 00"
Sunlit
Object was in daylight at epoch
Visualization orbit readout
Latitude
Unknown
Longitude
Unknown
Altitude
Unknown
Speed
Unknown
Apparent Right ascension
Unknown
Apparent Declination
Unknown
Sunlit
N/A
Visualization observer readout
Local Sidereal Time
02:39:21
Azimuth
Unknown
Elevation
Unknown
Doppler factor
Unknown
Orbital elements
Apogee altitude
860.568 km
Perigee altitude
461.79 km
Semi-major axis
7,039.316 km
Eccentricity
0.02833
Inclination
29.0263°
RAAN
75.2809°
Arg. of periapsis
256.1777°
True anomaly
103.88135°
Mean anomaly
100.7146°
Eccentric anomaly
102.30025°
Mean motion
3.67492 °/min
Orbital period
97.96 mins
BSTAR
0.00046095
Loading maneuver chart data...
Computing Atmospheric mass density...
Loading historical data...
Loading historical data...
Loading historical data...
Loading historical data...
Loading historical data...
Loading historical data...
Loading historical data...

Documentation

Showing up to 5 results
|